This is the latest recevied weather packets stored in our database for station/object KC7UNY-13. If no packets are shown the sender has not sent any weather packets the latest 10 day(s).
| Time | Temp. | Humidity | Pressure | Rain* | Wind** | Luminosity | Snow |
|---|---|---|---|---|---|---|---|
| 1777714385 | 20° C | 35% | 1011.2 hPa | 0 mm | - | 0 W/m² | - |
| 1777714083 | 19.44° C | 35% | 1011.1 hPa | 0 mm | - | 0 W/m² | - |
| 1777713780 | 20° C | 35% | 1011.3 hPa | 0 mm | - | 0 W/m² | - |
| 1777713477 | 20° C | 35% | 1011.2 hPa | 0 mm | - | 0 W/m² | - |
| 1777713173 | 20° C | 34% | 1011.3 hPa | 0 mm | - | 0 W/m² | - |
| 1777712871 | 20.56° C | 34% | 1011.3 hPa | 0 mm | - | 0 W/m² | - |
| 1777712567 | 20.56° C | 34% | 1011.1 hPa | 0 mm | - | 0 W/m² | - |
| 1777712264 | 20.56° C | 34% | 1011.2 hPa | 0 mm | - | 0 W/m² | - |
| 1777711960 | 20.56° C | 34% | 1011.1 hPa | 0 mm | - | 0 W/m² | - |
| 1777711658 | 20.56° C | 34% | 1011.2 hPa | 0 mm | - | 0 W/m² | - |
| 1777711357 | 20.56° C | 34% | 1011.2 hPa | 0 mm | - | 0 W/m² | - |
| 1777711054 | 20.56° C | 34% | 1011.3 hPa | 0 mm | - | 0 W/m² | - |
| 1777710751 | 20.56° C | 34% | 1011.3 hPa | 0 mm | - | 0 W/m² | - |
| 1777710448 | 20.56° C | 35% | 1011.3 hPa | 0 mm | - | 0 W/m² | - |
| 1777710145 | 20.56° C | 34% | 1011.4 hPa | 0 mm | - | 0 W/m² | - |
| 1777709842 | 20.56° C | 34% | 1011.4 hPa | 0 mm | - | 0 W/m² | - |
| 1777709540 | 21.11° C | 34% | 1011.4 hPa | 0 mm | - | 0 W/m² | - |
| 1777709237 | 21.11° C | 34% | 1011.2 hPa | 0 mm | - | 0 W/m² | - |
| 1777708935 | 21.67° C | 33% | 1011.3 hPa | 0 mm | - | 0 W/m² | - |
| 1777708632 | 21.11° C | 33% | 1011.3 hPa | 0 mm | - | 0 W/m² | - |
| 1777708330 | 21.67° C | 33% | 1011.3 hPa | 0 mm | - | 0 W/m² | - |
| 1777708027 | 21.11° C | 34% | 1011.3 hPa | 0 mm | - | 0 W/m² | - |
| 1777707724 | 21.67° C | 34% | 1011.2 hPa | 0 mm | - | 0 W/m² | - |
| 1777707420 | 21.67° C | 34% | 1011.1 hPa | 0 mm | - | 0 W/m² | - |
| 1777707116 | 21.67° C | 34% | 1011.2 hPa | 0 mm | - | 0 W/m² | - |
* Rain latest hour (hover to see other rain measurements)
** Current wind speed in m/s (hover to see current wind gust speed)